Dewpoint
54 55 55 54 54 55 55 55 56 56 56 56 56 56 56 57 57 47 40 49 51 55 55 38 35 36 39 39 41 40 31 22 22 20 24 25 28 29 31 29 29 28 27 28 30
54 54 54 53 53 53 54 55 55 56 56 56 56 56 56 56 52 38 49 53 54 54 41 39 35 35 33 35 37 34 30 25 25 25 27 29 30 30 29 29 28 29 29 30 32
55 55 55 55 55 55 54 54 55 56 56 56 56 55 56 54 47 38 52 52 52 51 42 38 36 36 34 36 34 35 28 28 27 31 33 32 31 30 28 27 26 25 27 31 35
56 56 56 56 56 56 55 55 56 56 56 56 56 55 55 51 33 44 50 49 51 47 43 38 34 35 34 31 35 34 31 30 32 32 33 31 31 30 29 28 28 27 28 31 34
56 56 56 56 56 56 55 55 56 56 56 57 56 54 51 40 37 42 50 46 44 44 41 40 36 37 30 31 33 33 31 31 32 32 31 30 31 29 28 28 27 29 31 32 34
56 56 56 56 56 56 55 54 55 55 56 55 54 54 48 33 40 41 43 41 42 42 41 42 39 40 37 33 33 33 34 33 33 31 30 29 29 29 26 27 25 26 29 29 29
56 56 56 55 55 56 55 53 54 54 55 53 52 48 41 38 41 42 41 43 43 43 41 43 44 42 39 35 34 33 31 30 29 31 30 31 28 29 28 27 26 27 28 29 30
56 56 56 56 56 56 56 53 54 55 53 52 52 48 37 43 44 39 38 41 44 44 43 46 45 44 40 36 33 28 28 24 28 30 32 30 25 27 28 28 27 27 27 28 28
55 56 55 56 56 56 55 54 53 55 54 54 51 46 38 44 39 38 40 39 42 43 46 41 44 40 37 31 27 27 17 19 24 30 30 29 25 27 27 27 26 27 25 26 29
54 54 54 56 56 55 54 54 53 53 53 47 45 43 37 35 39 39 42 42 41 40 42 41 38 35 31 27 24 21 21 22 23 26 28 27 27 28 28 25 26 26 26 27 29
52 54 54 55 55 55 51 49 41 43 39 36 35 33 34 38 41 41 42 41 40 38 32 36 34 30 25 27 27 27 25 24 23 28 27 27 27 27 28 26 26 26 27 28 29
51 52 53 53 54 54 46 41 44 45 38 38 37 38 37 40 36 39 42 38 36 32 32 33 32 30 31 31 30 28 26 22 21 26 27 27 27 28 28 27 26 27 27 28 30
50 50 52 53 53 51 44 44 48 45 39 35 35 37 38 40 35 38 40 39 35 32 30 28 30 30 29 28 25 23 23 24 24 28 28 26 23 23 25 26 26 28 29 28 30
51 51 51 52 50 46 43 46 48 47 38 31 36 38 39 41 38 40 42 40 37 32 32 30 31 28 29 28 27 22 29 28 28 28 24 26 21 19 23 23 23 25 27 28 31
50 50 52 51 47 44 45 46 47 46 28 31 34 41 40 37 37 40 44 41 34 32 32 31 29 30 30 29 29 25 32 31 30 28 26 25 22 15 17 19 18 21 25 29 30
51 50 51 45 46 47 47 47 46 38 25 27 32 31 31 35 34 38 40 41 40 35 33 32 35 33 31 32 32 32 32 31 30 29 23 22 20 18 17 17 20 23 24 26 30
51 51 50 45 40 46 48 45 37 31 22 23 26 27 26 26 27 32 32 30 29 26 28 29 29 32 33 30 35 32 28 23 20 23 22 22 22 23 23 19 21 24 24 26 28
50 51 48 44 48 49 46 37 24 21 19 27 28 25 22 23 26 27 25 25 31 27 28 26 23 25 32 29 27 29 27 18 12 15 19 23 21 21 20 19 21 24 24 25 27
50 47 46 48 49 48 41 33 27 21 26 27 23 19 19 24 23 18 18 20 26 28 24 25 23 29 29 30 30 28 27 27 23 24 22 22 23 24 20 20 23 24 25 31 30
43 43 45 48 49 46 36 28 22 25 28 25 17 16 13 16 16 15 13 24 28 32 31 25 22 26 31 32 32 31 31 25 27 15 16 19 19 20 19 23 24 23 33 35 37
45 37 46 48 48 40 32 28 25 27 31 27 23 21 17 17 19 16 12 24 25 29 30 27 24 24 26 26 27 31 27 27 23 22 20 15 19 19 21 24 23 24 34 36 36
42 34 46 47 38 33 31 30 34 31 33 31 30 26 23 23 21 19 17 26 27 29 25 28 25 22 20 24 24 23 21 20 20 18 23 20 19 23 22 23 23 27 35 36 39
36 34 45 44 31 31 32 29 31 29 30 29 29 30 30 26 22 21 24 28 29 28 27 26 23 20 19 25 27 24 23 23 22 22 20 17 19 20 23 21 22 30 36 38 41
37 32 37 38 33 29 27 27 27 33 31 30 29 29 27 24 24 23 23 30 29 29 35 32 25 22 18 19 22 21 23 23 21 20 19 19 20 20 20 21 21 31 37 39 40
36 33 34 29 31 30 31 28 26 26 31 31 30 30 29 27 26 25 29 29 29 33 29 29 24 24 24 24 24 23 23 23 23 22 20 19 18 19 20 20 20 29 37 40 38
36 32 33 29 26 26 29 25 26 27 27 28 30 30 28 29 27 27 28 29 28 27 27 28 25 25 23 24 22 22 21 21 21 21 20 20 20 21 21 20 20 30 37 39 37
39 37 34 25 22 24 26 28 30 29 31 32 31 27 24 23 24 26 26 27 28 27 26 25 25 24 21 21 21 17 18 17 19 20 20 19 19 21 20 21 22 33 37 39 38
Lifted_Index
11 10 10 10 10 9 8 8 7 7 6 6 6 5 5 5 4 5 5 5 5 5 5 6 7 7 7 7 7 6 6 5 6 7 7 8 8 9 9 9 9 9 9 9 9
11 10 10 10 10 9 9 8 7 7 6 6 6 6 5 5 4 5 5 5 5 5 6 6 7 7 7 7 7 6 6 6 7 7 8 8 8 9 9 9 9 9 9 9 9
10 10 10 10 10 9 9 9 8 7 7 6 6 6 6 5 4 5 5 5 5 6 6 6 6 6 6 6 6 6 6 6 7 7 8 8 9 9 9 9 10 10 10 10 10
10 10 10 9 9 9 9 9 8 7 7 6 6 6 6 5 5 5 6 6 6 6 6 6 6 6 6 6 6 6 6 6 7 7 7 8 8 9 9 9 10 10 10 10 10
10 10 10 9 9 9 9 9 9 8 7 6 6 6 6 5 6 6 7 6 6 6 6 6 6 6 6 6 6 6 6 6 7 7 7 8 8 8 8 9 9 9 10 10 10
10 10 10 10 9 9 9 9 9 9 8 7 7 7 6 6 6 7 7 7 7 6 6 6 6 5 5 6 6 6 6 6 6 7 7 7 7 7 8 8 9 9 9 9 9
10 10 10 10 10 9 10 10 10 9 9 9 8 7 7 6 7 7 7 7 7 6 6 6 5 5 5 5 6 6 6 6 6 7 7 7 7 7 7 8 8 8 9 9 9
10 10 10 10 10 10 10 10 10 9 9 9 8 7 7 7 7 7 8 8 7 7 6 6 6 5 5 5 5 5 5 5 6 6 7 6 6 6 7 7 7 8 8 8 9
11 11 11 10 10 10 10 11 10 10 9 9 8 7 7 7 7 8 8 8 7 7 7 6 6 5 5 5 4 4 4 5 5 6 6 6 6 6 7 7 7 7 8 8 8
12 12 11 11 10 11 11 11 10 10 10 9 9 8 8 8 8 8 8 8 7 7 7 6 6 5 5 5 4 4 4 4 5 6 6 6 6 6 7 7 7 7 7 8 8
13 13 12 12 11 12 12 11 11 11 11 10 10 10 9 9 8 8 7 7 7 7 6 6 5 5 5 5 5 4 4 4 5 6 6 5 5 6 6 6 7 7 7 7 7
14 14 13 13 12 12 12 12 12 12 11 11 10 10 10 9 8 7 7 7 6 6 6 6 5 6 6 6 5 5 4 4 5 5 5 5 5 5 6 6 6 6 6 6 6
15 15 14 13 13 12 13 13 12 11 10 10 10 9 9 8 8 7 7 7 6 6 6 5 6 6 6 6 5 5 4 4 4 4 4 4 4 5 6 6 6 6 6 5 5
16 15 15 14 13 12 12 13 12 10 8 8 9 9 8 8 8 7 7 7 6 5 5 5 5 6 6 5 5 5 5 5 4 4 3 3 3 4 5 5 5 5 5 4 4
16 15 15 14 13 12 12 12 11 8 6 7 9 9 8 8 8 7 7 7 6 6 5 5 5 5 5 6 6 5 5 5 4 3 3 2 3 4 4 5 5 4 4 4 3
16 15 15 14 14 13 12 12 9 6 5 7 8 9 8 8 8 8 7 7 6 6 5 5 5 6 6 6 6 6 5 4 3 2 2 2 3 3 4 4 5 4 4 3 3
16 15 15 14 14 13 12 10 7 5 6 7 8 9 8 8 8 8 8 7 6 5 5 4 5 5 6 6 5 5 4 2 1 1 1 2 3 3 4 4 5 4 4 4 4
15 15 14 14 13 13 11 8 5 5 7 8 8 8 8 8 8 8 8 7 6 6 5 4 4 5 6 5 5 5 4 2 1 1 1 2 2 3 4 4 5 5 5 4 4
15 14 14 13 13 12 10 7 6 7 8 8 8 7 7 8 8 8 8 7 7 6 5 4 4 5 6 6 5 5 4 3 2 1 1 1 2 3 4 4 5 5 5 4 4
15 14 13 13 12 12 9 7 8 9 9 9 7 7 7 7 8 8 8 8 7 7 6 6 5 5 5 5 5 4 4 4 3 1 1 1 2 3 4 4 5 5 4 4 3
14 13 13 12 12 11 9 8 9 10 10 9 8 8 7 7 8 8 8 8 8 7 7 6 6 5 5 5 5 4 4 4 3 2 1 1 1 3 4 4 5 5 4 3 3
14 13 12 12 11 10 9 10 11 11 10 9 9 9 8 8 8 8 8 8 8 8 7 7 6 5 4 5 5 5 4 4 3 3 2 1 1 2 4 4 5 5 4 3 3
13 13 12 12 11 10 10 10 11 10 10 10 9 9 9 8 8 8 8 8 8 8 7 7 6 4 4 4 5 5 4 4 4 3 2 1 1 2 3 4 5 5 4 3 3
13 13 12 12 11 11 10 10 10 10 10 10 10 9 9 8 8 8 8 8 8 7 7 7 6 4 4 4 5 4 4 4 4 3 2 1 2 2 3 4 5 5 4 3 3
13 13 13 12 12 12 11 10 9 9 10 10 10 9 9 8 8 8 8 8 8 7 7 7 6 5 5 5 5 4 3 3 3 2 2 1 2 3 4 5 5 5 4 3 3
14 14 14 13 12 12 11 10 10 10 10 10 10 10 10 9 9 9 9 9 8 8 7 7 6 5 5 5 4 4 3 2 2 2 2 2 2 3 4 5 5 4 4 3 3
15 15 15 14 13 12 11 10 10 11 11 11 11 11 10 11 10 10 10 10 9 8 7 7 6 5 5 5 4 3 3 2 2 2 2 2 2 3 4 4 5 4 3 3 3